Luqa, Malta

6:33 AM CET on March 24, 2017 (GMT +0100)
Luqa

Weather History for 16597 - July, 2013

Change the Weather History Date:

Monday, July 8, 2013

  Actual Average Record
Temperature  
Mean Temperature 78 °F -  
Max Temperature 87 °F 87 °F - ()
Min Temperature 69 °F 70 °F - ()
Cooling Degree Days 13    
Growing Degree Days 28 (Base 50)    
Moisture  
Dew Point 65 °F    
Average Humidity 66    
Maximum Humidity 89    
Minimum Humidity 37    
Precipitation  
Precipitation 0.00 in 0.00 in - ()
Sea Level Pressure  
Sea Level Pressure 30.06 in    
Wind  
Wind Speed 5 mph ()    
Max Wind Speed 14 mph    
Max Gust Speed -    
Visibility 6.7 miles    
Events      
T = Trace of Precipitation, MM = Missing Value Source: Averaged Metar Reports

Daily Weather History Graph

Daily Weather History Graph

Search for Another Location

Airport or City:

Trip Planner

Search our weather history database for the weather conditions in past years. The results will help you decide how hot, cold, wet, or windy it might be!

Date:

Astronomy

Jul. 08, 2013 Rise Set
Actual Time 5:52 AM CEST 8:21 PM CEST
Civil Twilight 5:23 AM CEST 8:50 PM CEST
Nautical Twilight 4:46 AM CEST 9:27 PM CEST
Astronomical Twilight 4:05 AM CEST 10:08 PM CEST
Moon 6:03 AM CEST (7/8) 8:16 PM CEST (7/8)
Length of Visible Light 15h 27m
Length of Day
14h 28m
New Moon, 0% of the Moon is Illuminated
Jul 8
New Moon
Jul 16
First Quarter
Jul 22
Full
Jul 29
Last Quarter
Aug 6
New

Hourly Weather History & Observations

Time (CEST) Temp. Heat Index Dew Point Humidity Pressure Visibility Wind Dir Wind Speed Gust Speed Precip Events Conditions
12:15 AM 73.4 °F - 66.2 °F 78% 30.06 in - South 3.5 mph - N/A   Clear
12:30 AM 73.4 °F - 66.2 °F 78% 30.06 in - Variable 2.3 mph - N/A   Clear
12:45 AM 73.4 °F - 66.2 °F 78% 30.06 in - Variable 1.2 mph - N/A   Clear
1:15 AM 73.4 °F - 64.4 °F 73% 30.06 in - South 2.3 mph - N/A   Clear
1:45 AM 71.6 °F - 66.2 °F 83% 30.06 in - Variable 1.2 mph - N/A   Clear
2:00 AM 72 °F - 66 °F 75% 30.06 in 6 mi South 1.2 mph - -  
2:15 AM 71.6 °F - 62.6 °F 73% 30.04 in - WSW 3.5 mph - N/A   Clear
2:45 AM 71.6 °F - 60.8 °F 69% 30.04 in - West 5.8 mph - N/A   Clear
3:15 AM 71.6 °F - 64.4 °F 78% 30.04 in - SW 4.6 mph - N/A   Clear
3:45 AM 71.6 °F - 66.2 °F 83% 30.04 in - WSW 6.9 mph - N/A   Clear
4:15 AM 71.6 °F - 66.2 °F 83% 30.04 in - WNW 4.6 mph - N/A   Clear
4:45 AM 71.6 °F - 64.4 °F 78% 30.04 in - WNW 3.5 mph - N/A   Clear
5:00 AM 71 °F - 65 °F 76% 30.04 in 7 mi WNW 2.3 mph - -  
5:01 AM 71.6 °F - 66.2 °F 83% 30.04 in 4.3 mi Variable 2.3 mph - N/A   Unknown
5:04 AM 71.6 °F - 66.2 °F 83% 30.04 in - Variable 2.3 mph - N/A   Unknown
5:15 AM 71.6 °F - 66.2 °F 83% 30.04 in - Variable 2.3 mph - N/A   Clear
5:45 AM 69.8 °F - 66.2 °F 88% 30.04 in 5.6 mi WSW 2.3 mph - N/A   Partly Cloudy
6:15 AM 69.8 °F - 66.2 °F 88% 30.04 in 5.6 mi WSW 5.8 mph - N/A   Unknown
6:45 AM 71.6 °F - 68.0 °F 88% 30.04 in 5.6 mi SW 5.8 mph - N/A   Unknown
7:15 AM 73.4 °F - 69.8 °F 88% 30.04 in 5.6 mi South 4.6 mph - N/A   Partly Cloudy
7:45 AM 75.2 °F - 71.6 °F 89% 30.04 in 5.6 mi Variable 2.3 mph - N/A   Partly Cloudy
8:00 AM 75 °F - 71 °F 82% 30.04 in 6 mi WNW 2.3 mph - -  
8:15 AM 77.0 °F - 68.0 °F 74% 30.04 in - West 3.5 mph - N/A   Clear
8:45 AM 80.6 °F 82.3 °F 64.4 °F 58% 30.06 in 6.2 mi North 3.5 mph - N/A   Partly Cloudy
9:15 AM 82.4 °F 83.4 °F 62.6 °F 51% 30.06 in 6.2 mi Variable 2.3 mph - N/A   Partly Cloudy
9:45 AM 78.8 °F - 68.0 °F 69% 30.06 in 6.2 mi SW 8.1 mph - N/A   Partly Cloudy
10:15 AM 78.8 °F - 69.8 °F 74% 30.06 in 6.2 mi SW 8.1 mph - N/A   Partly Cloudy
10:45 AM 80.6 °F 83.2 °F 68.0 °F 65% 30.06 in 6.2 mi West 6.9 mph - N/A   Partly Cloudy
11:00 AM 81 °F - 68 °F 56% 30.07 in 9 mi West 5.8 mph - -   Scattered Clouds
11:15 AM 82.4 °F 85.4 °F 68.0 °F 62% 30.06 in 6.2 mi WSW 4.6 mph - N/A   Partly Cloudy
11:45 AM 82.4 °F 85.4 °F 68.0 °F 62% 30.09 in 6.2 mi Variable 5.8 mph - N/A   Partly Cloudy
12:15 PM 82.4 °F 85.4 °F 68.0 °F 62% 30.09 in 6.2 mi Variable 6.9 mph - N/A   Partly Cloudy
12:45 PM 82.4 °F 85.4 °F 68.0 °F 62% 30.09 in 6.2 mi SW 9.2 mph - N/A   Partly Cloudy
1:15 PM 84.2 °F 86.6 °F 66.2 °F 55% 30.06 in 6.2 mi WSW 9.2 mph - N/A   Partly Cloudy
1:45 PM 86.0 °F 88.2 °F 66.2 °F 51% 30.06 in 6.2 mi Variable 5.8 mph - N/A   Partly Cloudy
2:00 PM 83 °F - 67 °F 50% 30.06 in 9 mi NE 11.5 mph - -  
2:15 PM 84.2 °F 87.3 °F 68.0 °F 58% 30.06 in 6.2 mi NE 8.1 mph - N/A   Partly Cloudy
2:45 PM 87.8 °F 88.5 °F 62.6 °F 43% 30.06 in - NNW 9.2 mph - N/A   Clear
3:15 PM 86.0 °F 86.6 °F 62.6 °F 45% 30.06 in 6.2 mi NNW 10.4 mph - N/A   Partly Cloudy
3:45 PM 84.2 °F 87.3 °F 68.0 °F 58% 30.06 in 6.2 mi NE 13.8 mph - N/A   Partly Cloudy
4:15 PM 84.2 °F 87.3 °F 68.0 °F 58% 30.06 in 6.2 mi North 9.2 mph - N/A   Partly Cloudy
4:45 PM 84.2 °F 87.3 °F 68.0 °F 58% 30.06 in 6.2 mi North 10.4 mph - N/A   Partly Cloudy
5:00 PM 85 °F - 67 °F 45% 30.05 in 9 mi North 9.2 mph - -   Scattered Clouds
5:15 PM 84.2 °F 86.6 °F 66.2 °F 55% 30.06 in 6.2 mi NNE 11.5 mph - N/A   Partly Cloudy
5:45 PM 84.2 °F 84.4 °F 60.8 °F 45% 30.04 in - North 11.5 mph - N/A   Clear
6:15 PM 84.2 °F 83.0 °F 55.4 °F 37% 30.06 in - North 12.7 mph - N/A   Clear
6:45 PM 82.4 °F 82.9 °F 60.8 °F 48% 30.06 in - NNW 9.2 mph - N/A   Clear
7:15 PM 82.4 °F 82.9 °F 60.8 °F 48% 30.06 in - North 8.1 mph - N/A   Clear
7:45 PM 80.6 °F 81.5 °F 60.8 °F 51% 30.06 in - North 8.1 mph - N/A   Clear
8:00 PM 80 °F - 61 °F 42% 30.06 in 12 mi NNW 8.1 mph - -  
8:15 PM 78.8 °F - 60.8 °F 54% 30.06 in - North 6.9 mph - N/A   Clear
8:45 PM 77.0 °F - 64.4 °F 65% 30.06 in - NNW 4.6 mph - N/A   Clear
9:15 PM 77.0 °F - 62.6 °F 61% 30.06 in - North 5.8 mph - N/A   Clear
9:45 PM 77.0 °F - 64.4 °F 65% 30.06 in - NNW 2.3 mph - N/A   Clear
10:15 PM 77.0 °F - 62.6 °F 61% 30.09 in - Variable 2.3 mph - N/A   Clear
10:45 PM 77.0 °F - 60.8 °F 57% 30.09 in - NNW 3.5 mph - N/A   Clear
11:00 PM 76 °F - 62 °F 54% 30.08 in 12 mi North 3.5 mph - -  
11:15 PM 75.2 °F - 68.0 °F 78% 30.09 in - NNE 8.1 mph - N/A   Clear
11:45 PM 73.4 °F - 68.0 °F 83% 30.09 in - North 4.6 mph - N/A   Clear